Theta_e
302 301 300 301 303 301 301 305 304 308 310 315 315 317 313 314 318 318 319 320 322 318 314 313 313 313 313 311 315 315 316 314 313 317 318 316 315 316 315 316 317 313 313 315
302 301 300 301 303 300 303 305 306 310 310 314 314 314 313 314 317 317 318 320 320 319 315 314 313 313 312 314 314 316 317 315 316 316 315 315 318 317 316 313 311 316 314 315
302 301 300 302 303 301 303 305 306 311 310 311 311 313 313 313 315 315 316 319 320 320 319 314 314 314 319 317 315 316 315 315 315 317 316 315 318 318 316 316 315 315 314 315
302 301 300 301 302 301 302 305 305 310 311 311 312 311 312 313 314 315 315 317 319 319 321 318 319 320 321 318 317 315 314 315 314 314 314 316 317 318 316 317 315 317 317 314
302 301 300 302 301 301 301 304 306 309 309 309 312 314 313 313 314 316 315 317 316 318 320 316 317 320 319 318 317 316 313 316 314 318 315 316 318 315 315 316 316 315 314 314
302 301 301 301 300 301 300 300 302 308 309 310 311 312 312 312 313 314 315 314 314 317 317 316 315 315 316 316 317 316 313 313 313 317 312 313 314 312 313 313 313 314 316 313
302 301 301 301 300 299 299 300 304 309 311 312 311 309 311 312 313 314 315 315 315 313 314 314 314 313 316 317 317 313 310 311 310 311 309 313 314 311 312 312 311 310 310 310
302 301 302 300 300 299 299 300 302 307 309 311 313 311 309 311 312 313 314 313 312 315 317 318 320 314 317 316 314 313 311 309 311 314 312 312 313 311 311 312 311 310 309 310
301 301 301 300 300 300 298 301 301 305 309 310 310 312 310 310 311 311 311 312 313 315 316 312 320 322 319 318 319 312 310 307 312 306 312 314 313 311 309 310 312 310 310 310
301 301 300 299 299 300 297 298 301 303 304 309 311 311 312 310 310 310 311 313 317 314 303 309 312 318 316 320 321 316 311 308 311 303 307 311 310 310 309 312 312 309 310 309
301 301 300 299 299 300 298 297 298 302 304 305 308 312 310 311 311 311 312 318 316 308 315 314 312 307 313 314 316 317 319 315 310 306 307 318 308 311 311 309 309 309 308 308
300 300 299 299 299 299 297 298 298 299 305 307 306 306 306 308 310 310 311 313 316 314 316 309 310 309 304 312 316 312 317 315 315 314 314 311 309 310 308 307 309 309 308 308
299 299 299 299 298 297 297 298 299 301 306 305 307 307 310 310 309 311 312 314 316 315 314 312 313 315 308 314 313 314 313 309 311 311 312 310 311 311 309 310 309 308 309 306
298 298 297 297 297 298 297 299 303 303 306 306 309 311 312 314 315 312 313 315 315 313 313 311 311 313 310 309 314 312 312 311 312 311 314 313 311 309 306 304 303 302 301 300
296 296 296 297 298 298 298 300 303 303 305 307 308 306 310 314 317 316 315 316 314 312 312 307 312 308 311 305 311 307 311 313 313 314 312 311 310 305 303 304 302 300 300 298
297 298 298 298 297 298 300 301 302 303 305 307 307 306 309 312 317 316 316 317 312 311 311 309 312 313 314 313 313 313 311 309 312 313 310 306 303 302 301 301 299 297 297 296
297 296 297 297 298 301 301 302 302 304 304 307 307 303 306 313 315 312 313 312 312 314 312 309 312 314 310 304 313 313 312 310 308 305 306 305 304 303 299 298 296 295 294 294
297 297 298 301 301 300 301 303 304 303 305 306 307 308 309 311 312 315 311 308 310 311 312 305 308 310 302 312 311 309 307 306 306 304 303 304 300 298 297 295 295 294 293 292
298 301 301 300 300 300 302 306 303 305 306 306 307 311 312 309 309 309 306 306 308 309 309 309 309 307 314 311 310 308 307 308 303 300 300 300 299 297 296 295 294 293 292 291
300 300 302 297 301 305 304 306 307 308 308 309 307 307 309 311 305 309 308 305 309 309 309 308 308 310 305 304 305 304 303 302 300 299 298 297 296 295 294 294 293 292 291 291
302 302 302 303 305 306 304 303 306 306 306 305 305 306 311 308 308 310 304 308 305 315 312 314 311 313 306 304 304 303 302 301 302 300 299 298 296 294 293 291 291 290 290 290
302 304 306 306 304 302 305 305 303 304 309 303 306 307 309 306 307 307 305 309 306 315 306 311 314 307 303 303 302 301 299 298 298 298 296 295 294 293 291 290 290 289 287 286
304 303 301 303 299 307 306 310 308 308 302 302 302 306 303 304 304 303 307 311 310 304 311 311 306 304 301 301 300 299 297 297 296 296 294 293 291 290 290 288 287 286 285 284
300 304 301 302 302 301 301 301 302 299 298 300 300 303 304 300 305 303 310 305 306 309 308 306 303 301 299 298 297 296 295 293 292 292 291 289 288 288 287 287 286 285 284 284
299 299 301 301 299 298 298 297 298 298 298 299 302 303 304 304 305 304 306 309 307 305 304 301 299 297 296 295 293 293 292 291 291 290 288 287 287 286 285 285 285 284 284 283
296 296 298 297 298 297 297 296 299 297 297 298 300 303 306 305 301 299 300 304 300 299 298 297 296 295 294 293 292 291 291 290 290 289 287 286 286 285 283 282 283 283 282 281
295 296 292 293 295 294 293 293 294 294 299 302 301 298 297 297 298 294 293 295 295 294 295 294 294 294 292 291 291 290 289 289 288 287 286 285 284 283 282 281 280 280 280 280
Wind_Speed
52 47 44 41 46 43 38 10 6 24 37 10 8 17 7 8 17 2 4 3 4 4 7 7 8 10 10 10 10 9 7 6 4 9 3 3 5 6 6 5 4 1 4 6
54 50 47 44 47 49 35 6 5 30 33 14 17 13 13 5 14 8 6 4 4 1 4 4 6 7 5 9 8 9 7 1 2 7 5 4 4 4 3 5 3 6 5 6
56 52 49 48 52 51 34 4 8 6 11 17 19 23 16 23 6 4 6 2 3 1 3 4 7 7 5 8 8 7 7 4 7 8 8 4 4 6 5 5 4 4 6 6
58 53 51 52 55 53 33 5 7 6 14 22 21 19 14 21 17 16 8 2 5 3 3 1 4 2 2 2 6 5 7 7 5 4 4 4 5 4 8 7 5 6 7 8
60 54 53 59 60 51 20 4 4 4 6 20 24 13 24 24 23 8 16 6 9 8 5 7 5 3 4 6 5 6 1 5 4 2 2 2 3 5 5 4 3 5 6 7
61 55 56 61 61 53 9 13 6 3 14 20 18 30 18 20 19 20 7 21 17 8 20 16 8 6 4 1 5 9 7 7 4 4 3 4 7 9 9 6 5 7 7 10
60 55 56 67 67 62 18 20 3 4 7 13 24 18 21 21 22 13 19 7 13 7 4 5 4 5 5 7 5 1 8 7 2 3 2 2 7 1 3 8 7 6 5 3
58 60 64 61 58 55 24 22 6 2 4 12 11 17 25 15 15 14 12 14 4 4 4 3 1 4 3 2 5 5 2 6 3 5 4 5 4 5 7 8 8 7 6 6
61 64 63 61 49 51 33 19 20 3 2 5 9 14 14 18 14 9 8 15 2 5 2 2 6 6 6 5 3 4 5 6 5 3 5 8 8 5 5 4 4 8 8 9
62 62 62 58 54 45 33 18 19 0 1 4 2 15 12 9 12 1 5 13 4 6 1 3 3 5 4 6 10 6 3 3 5 2 3 7 8 4 4 6 8 8 11 8
58 56 55 52 47 44 36 23 21 6 4 9 6 4 7 10 15 13 4 5 4 3 6 4 4 3 6 3 4 7 7 7 3 3 3 7 7 4 9 7 1 6 7 8
53 53 49 45 43 40 33 9 26 26 5 2 5 13 19 8 2 11 8 7 6 6 4 1 2 2 0 5 4 0 3 6 7 9 7 4 6 5 5 4 6 7 8 6
47 43 40 40 39 37 33 13 24 20 2 4 5 7 6 14 21 17 10 2 2 2 3 5 3 4 4 4 5 4 3 3 4 4 5 6 5 3 2 2 4 5 4 8
37 38 38 37 38 40 34 21 16 16 3 1 5 4 7 6 13 26 21 3 5 5 0 3 3 3 4 4 4 4 4 8 7 3 4 2 6 5 4 4 7 9 8 5
37 36 36 38 36 35 28 28 15 25 2 2 4 13 8 6 8 16 20 13 5 2 2 1 3 2 3 1 1 2 5 7 6 7 9 7 5 9 7 7 6 8 14 10
34 34 35 35 34 28 25 4 9 19 12 1 2 4 4 5 6 10 12 11 3 4 4 4 2 2 3 4 4 4 6 6 5 5 8 4 9 8 4 9 8 9 11 13
31 33 31 29 27 32 8 3 7 21 9 1 3 3 2 4 1 1 2 2 3 3 3 3 2 2 3 3 5 5 7 5 5 10 13 6 5 6 9 13 12 19 19 18
31 29 26 29 31 20 9 12 17 30 6 2 3 4 4 6 3 1 2 3 2 3 3 2 2 0 1 3 2 4 5 10 8 2 5 7 15 15 13 16 16 15 13 12
27 33 36 27 6 3 4 10 34 15 4 5 3 2 2 1 1 1 1 1 2 0 2 1 2 1 5 1 1 4 4 3 10 12 12 14 16 15 14 14 12 16 13 12
36 29 4 2 7 17 30 12 5 1 2 2 3 0 1 1 2 2 1 1 2 2 1 2 2 3 1 1 3 7 8 10 14 17 9 13 14 14 14 12 11 14 13 16
7 2 1 3 18 6 2 4 6 3 3 3 3 3 2 1 2 3 3 3 0 3 2 4 0 3 2 4 5 6 9 7 1 7 9 8 15 16 15 12 10 17 19 17
7 4 10 8 3 2 3 1 2 2 3 0 2 2 3 2 1 2 4 4 1 1 4 3 3 1 0 5 5 7 7 6 9 10 14 14 13 15 13 13 14 15 21 24
4 3 3 1 2 3 3 1 1 1 2 0 1 1 1 2 2 2 1 4 3 2 3 2 1 3 4 6 7 10 10 12 13 14 18 20 21 20 22 18 17 19 21 21
3 3 5 5 4 4 2 2 1 1 2 1 0 1 2 1 3 2 4 1 2 3 2 3 3 3 5 6 7 10 10 11 13 13 16 17 18 19 18 22 20 21 19 19
3 4 4 4 2 1 3 2 1 3 2 2 1 3 3 3 3 2 2 3 4 5 3 3 3 4 6 7 8 8 8 9 10 13 13 17 20 19 18 17 18 20 22 21
4 6 3 3 2 8 6 8 4 4 4 1 3 3 3 5 3 5 6 4 4 3 3 3 2 4 6 7 8 8 10 12 13 16 18 18 18 17 17 18 19 19 21 20
5 4 6 5 3 4 5 5 6 4 2 3 3 6 4 3 4 5 5 4 4 7 5 3 4 5 7 8 9 11 15 15 16 18 18 18 20 22 19 16 14 17 17 17
Wind_Direction
210 210 210 212 205 191 187 187 201 168 173 184 212 221 204 221 228 189 257 286 239 217 184 162 185 193 201 170 149 159 198 149 201 217 275 187 169 183 144 128 208 141 155 272
202 205 207 204 197 189 168 196 185 172 173 188 213 208 204 248 215 205 186 245 220 333 206 181 187 198 229 151 148 160 179 197 65 337 356 347 212 190 124 108 95 192 140 259
196 199 201 197 190 187 169 179 176 170 195 215 203 197 203 212 234 242 193 227 252 357 303 238 212 203 200 182 190 129 113 141 165 200 211 170 176 177 167 139 123 180 216 268
192 195 195 192 182 183 173 194 210 190 184 209 206 196 189 199 213 213 173 237 222 166 236 261 189 149 111 106 168 130 140 193 178 217 216 181 201 182 166 182 194 168 242 204
187 191 191 187 180 186 179 176 199 184 196 202 204 205 206 198 205 173 213 205 196 209 208 203 178 161 196 187 188 152 150 200 163 136 101 82 233 249 218 232 189 245 232 253
182 185 188 186 177 181 176 198 276 241 214 184 191 213 195 197 196 230 200 209 217 189 223 236 257 208 206 180 190 168 143 133 122 219 23 47 317 219 214 202 198 181 210 225
178 184 183 176 182 185 176 183 236 211 193 190 208 189 202 195 207 208 214 232 215 221 100 98 58 53 84 95 42 61 137 114 95 157 53 256 252 306 197 199 235 230 276 217
176 177 175 179 181 181 185 179 198 202 236 197 201 195 198 204 216 223 232 230 212 149 86 77 70 333 41 49 43 10 54 123 102 139 189 290 281 210 173 174 253 193 186 145
171 171 174 179 179 185 191 175 195 295 336 217 187 190 179 197 204 228 240 248 93 42 107 92 176 202 170 204 102 76 70 63 116 134 159 212 234 234 158 105 275 177 151 165
173 172 173 181 187 187 185 194 186 171 261 278 238 196 189 165 195 201 161 191 172 135 178 154 172 236 181 164 160 165 66 31 148 117 206 286 246 235 144 133 239 171 162 165
169 171 176 181 185 185 182 199 199 209 180 268 298 253 160 182 192 200 149 126 212 45 182 167 199 150 215 132 169 174 153 146 170 92 68 282 173 103 172 216 307 157 151 157
163 166 173 180 183 184 182 193 209 222 241 273 312 288 278 225 186 182 201 188 156 182 161 149 127 125 111 152 204 67 198 182 176 177 209 223 211 210 226 178 161 166 139 151
163 166 168 173 176 180 182 184 191 227 320 288 275 258 297 232 230 211 195 222 223 192 172 161 174 198 138 158 234 114 242 153 136 107 214 220 235 242 241 167 157 123 119 139
160 165 172 175 181 177 179 187 202 184 220 170 271 252 261 210 224 220 214 257 111 110 134 163 145 194 194 199 165 155 192 136 156 282 278 335 250 229 173 115 105 98 72 97
167 171 176 176 174 180 189 178 208 187 207 124 283 309 266 237 214 215 203 208 138 136 151 158 194 150 146 277 306 207 192 167 161 213 188 166 201 154 144 133 120 116 117 100
158 162 166 171 171 171 161 190 237 210 194 33 307 275 266 312 287 217 199 200 137 130 148 228 213 211 176 152 195 240 194 194 187 191 132 79 111 104 86 113 112 105 106 119
160 164 169 170 171 163 145 203 171 174 100 72 263 286 267 276 201 126 119 79 112 127 151 213 195 199 133 131 199 215 161 132 110 120 110 70 179 160 121 116 109 103 98 103
161 162 158 157 149 162 228 270 187 170 150 73 299 278 350 5 10 174 2 102 82 30 135 56 195 213 87 242 241 108 103 112 115 1 12 115 117 114 115 118 120 109 109 113
151 141 134 125 142 154 212 165 156 179 123 162 231 189 171 335 316 351 9 59 86 155 117 191 111 243 216 243 202 153 169 201 140 99 101 112 117 122 125 124 122 119 123 119
139 132 117 144 192 128 110 165 154 124 239 166 232 107 210 332 51 294 41 40 134 113 226 148 185 246 317 276 244 120 118 134 128 115 119 123 125 132 135 135 133 130 129 127
147 94 143 131 132 130 93 186 188 157 161 183 220 162 153 172 138 153 257 165 157 118 198 143 318 270 305 338 100 122 131 143 195 114 122 126 138 139 133 129 128 125 127 127
169 128 116 123 105 138 152 144 85 182 200 174 186 182 173 152 129 77 256 107 100 196 161 104 202 137 289 92 98 106 91 93 81 108 118 115 116 122 117 116 115 112 118 123
335 72 93 109 304 87 65 2 63 269 335 339 49 170 115 98 76 200 246 94 139 103 35 130 11 51 65 91 85 75 79 88 96 98 99 103 105 109 114 109 110 122 116 124
28 61 48 35 28 48 35 310 308 358 261 276 39 91 91 51 75 287 70 47 87 95 57 21 357 42 57 63 81 93 93 94 96 97 100 99 101 100 106 112 131 129 123 128
68 39 51 47 354 325 259 258 255 337 338 6 358 64 60 30 85 9 118 65 65 41 42 355 337 71 79 76 80 89 96 95 95 100 101 102 104 106 98 110 122 127 131 137
64 42 18 338 17 15 13 7 10 2 325 319 36 64 59 37 32 36 17 48 46 0 320 316 23 76 87 94 94 90 90 94 96 99 104 103 103 107 108 117 126 131 137 135
43 33 13 356 26 21 4 346 343 309 1 38 33 46 14 360 46 33 11 26 349 328 338 4 42 72 92 95 90 91 93 94 95 94 93 96 106 112 107 103 103 116 121 123